Dewpoint
55 52 46 40 31 28 24 20 27 29 29 34 33 33 35 35 38 35 56 61 62 63 66 69 70 69 68 67 66 66 65 63 62 64 63 66 64 61 57 57 58 59 57 60 62 64 66 65 64
54 46 42 35 27 24 22 24 22 30 31 32 33 34 35 36 44 51 54 61 62 64 66 67 71 70 68 67 66 64 63 61 60 60 60 60 59 57 58 58 59 58 57 58 59 61 62 62 62
52 43 36 31 27 23 23 26 25 31 31 31 35 37 37 39 48 49 56 61 62 64 65 67 71 69 68 67 65 64 62 61 59 58 58 57 58 57 58 58 59 59 57 57 58 58 59 59 58
47 41 36 29 24 27 27 26 30 31 31 32 34 36 41 46 49 52 58 62 62 64 64 70 71 70 69 67 66 64 63 61 59 59 58 59 59 60 60 60 60 59 58 57 57 56 57 58 59
46 39 30 28 25 26 29 30 31 30 30 29 29 33 38 47 51 55 60 63 62 64 64 68 71 70 69 67 66 65 64 62 59 59 60 61 62 61 62 62 61 61 59 59 58 58 59 59 60
39 37 27 24 24 26 30 30 30 29 30 29 28 29 35 49 52 58 61 62 63 65 65 66 70 71 69 68 67 66 65 64 61 59 60 60 62 64 62 63 62 62 60 60 60 61 61 61 61
35 33 25 24 23 25 28 31 30 29 29 28 31 29 36 44 53 60 62 63 64 65 65 65 67 69 69 69 68 67 66 65 62 60 61 62 63 63 63 64 63 62 61 61 62 62 61 60 61
40 34 26 29 25 25 29 31 31 30 28 30 33 26 31 44 55 60 62 62 63 64 64 64 65 66 66 67 68 68 67 66 64 61 63 63 62 64 65 64 63 63 62 62 63 63 62 62 63
47 32 26 27 27 27 34 31 32 34 32 35 34 35 40 46 54 59 59 60 61 63 63 63 65 65 65 66 68 68 67 66 64 62 64 62 58 61 62 63 64 64 63 63 63 63 64 63 62
40 34 29 31 33 32 33 34 33 35 34 33 35 37 42 47 52 54 55 56 59 61 63 63 64 65 65 65 67 66 65 64 62 58 59 58 56 56 57 59 59 61 62 61 61 60 59 58 57
40 36 34 39 38 42 40 40 39 35 33 35 34 36 40 43 48 50 51 51 55 58 61 63 64 67 66 66 66 66 65 63 62 59 57 57 56 54 54 56 56 57 58 58 58 58 58 54 49
38 39 39 40 43 43 42 41 41 38 34 37 40 40 41 41 42 45 50 50 51 55 59 62 63 66 67 67 66 65 65 64 63 61 57 57 56 57 57 56 57 57 57 58 58 52 46 43 41
37 36 38 38 41 39 38 38 39 39 40 42 43 43 43 42 42 43 41 47 51 52 56 59 63 64 66 66 66 65 65 63 63 61 59 58 58 57 57 56 57 57 56 52 49 43 39 39 36
37 38 38 38 38 37 37 36 36 35 36 36 37 39 40 41 41 42 42 42 41 48 49 54 61 63 65 66 66 66 64 63 63 61 59 59 59 59 57 55 50 46 44 42 42 40 37 33 27
40 37 35 35 35 36 37 33 33 34 34 34 35 35 36 37 39 41 42 42 41 40 41 42 51 60 63 65 65 66 63 63 63 61 61 61 61 59 55 50 47 44 41 37 35 33 29 26 24
34 34 29 32 35 34 35 25 27 32 34 34 34 34 34 36 36 38 41 43 43 43 42 42 42 49 59 63 65 64 63 63 63 63 62 62 60 56 49 43 39 37 36 33 28 28 27 25 23
30 24 28 29 34 34 34 30 31 38 35 34 33 35 36 37 36 36 36 39 42 41 41 42 44 46 54 60 62 63 62 62 63 63 62 60 57 51 44 39 33 31 30 29 24 27 24 22 21
23 26 26 26 29 31 30 29 31 33 33 32 33 35 36 37 38 40 40 40 40 41 41 42 44 49 55 59 61 62 62 63 62 60 57 53 50 43 35 33 29 27 27 25 24 23 22 20 20
29 28 28 27 29 28 25 24 25 26 26 27 28 29 30 32 35 38 40 41 43 42 42 44 46 51 56 58 59 61 59 57 56 54 49 46 41 35 30 30 27 26 24 20 19 20 21 20 21
30 28 26 26 27 27 25 24 24 25 25 26 25 24 23 24 26 31 36 39 41 42 43 45 48 53 57 58 57 57 55 52 48 44 41 40 33 30 27 26 25 23 21 20 19 19 19 19 22
29 27 26 25 26 27 26 23 21 20 21 22 23 24 24 24 24 25 26 34 40 42 43 45 49 55 57 56 57 52 48 43 38 37 36 32 28 25 26 25 24 22 21 21 20 21 20 18 20
26 28 29 28 26 23 27 19 19 20 20 21 21 21 23 25 26 27 26 27 36 41 45 46 50 54 56 54 51 49 51 47 39 36 33 30 27 25 23 22 22 21 20 20 18 18 17 18 16
27 29 28 28 27 26 25 25 16 17 18 18 20 20 21 23 24 26 28 29 32 41 46 48 51 53 52 51 52 52 50 46 37 31 26 25 23 22 21 20 20 19 18 18 18 18 17 15 16
31 30 29 28 29 22 19 23 13 8 9 14 18 19 20 21 25 27 28 32 33 40 49 51 51 51 50 51 51 53 48 39 31 25 24 24 23 20 19 18 19 18 18 18 18 18 18 16 17
31 30 21 20 21 16 17 18 18 14 19 20 19 18 21 23 25 29 32 35 37 41 50 51 50 49 49 50 51 48 42 38 33 23 23 20 18 18 18 17 16 17 19 19 19 20 21 20 17
31 26 19 13 12 7 19 16 13 17 22 22 21 19 25 27 28 26 33 38 40 44 50 50 49 47 47 47 46 43 37 28 22 20 18 18 18 18 17 15 15 16 16 17 18 19 18 19 17
27 27 27 23 21 18 13 13 15 15 16 17 19 26 29 29 30 30 30 38 41 46 49 49 48 46 45 44 41 34 27 23 20 18 18 17 16 15 15 15 15 16 16 15 18 15 13 14 14
29 28 24 26 16 13 14 14 14 15 16 18 20 27 28 32 35 31 29 38 44 47 49 49 47 44 42 38 35 29 23 20 18 17 17 16 14 14 15 15 15 15 15 14 13 12 13 12 14
29 29 28 26 25 17 16 15 17 15 15 16 28 28 31 36 38 33 32 41 46 49 49 47 44 41 37 34 28 23 19 17 17 17 16 15 13 13 13 13 13 13 13 11 10 10 12 13 16
25 26 26 24 23 25 23 20 21 20 21 29 28 26 31 39 41 40 40 45 47 47 46 43 39 37 33 27 23 18 17 16 16 15 14 13 12 12 12 12 12 12 11 10 8 9 13 15 17
Wind_Speed
11 9 5 4 7 6 9 5 3 4 5 2 3 6 3 6 3 1 5 7 9 20 18 18 19 18 17 17 15 14 13 12 10 10 8 9 10 8 5 5 5 5 5 6 7 11 14 13 12
8 5 3 2 9 13 11 7 8 3 4 8 8 7 8 2 0 4 11 8 12 18 18 19 18 20 18 17 16 14 13 12 11 11 10 8 8 8 7 6 5 5 4 5 6 7 8 8 8
4 3 5 5 12 19 8 7 7 2 4 4 3 4 3 1 3 4 5 10 16 18 17 17 19 19 18 17 15 14 12 11 11 12 12 12 11 9 8 7 7 6 6 5 5 6 7 8 7
4 5 3 12 19 12 12 2 8 2 3 1 4 5 2 2 2 3 9 11 15 16 17 20 19 18 18 17 15 14 12 11 12 13 10 10 9 9 8 8 8 7 7 6 6 6 7 6 5
4 4 12 16 24 18 11 7 6 6 5 4 4 1 2 3 3 5 13 12 15 16 14 18 17 18 18 17 16 14 12 11 11 11 8 8 5 8 10 9 7 6 6 6 6 4 4 3 3
8 7 12 24 24 14 15 13 11 12 7 6 5 6 2 3 4 7 12 12 12 15 15 17 16 17 17 16 15 14 12 10 10 10 9 6 1 2 10 9 7 5 4 3 3 2 2 2 3
15 13 21 21 22 18 18 9 13 13 12 10 3 6 2 3 4 9 10 10 11 14 15 14 16 16 16 15 15 14 12 11 10 9 8 3 3 2 12 10 7 4 3 1 2 3 3 3 3
10 10 17 18 25 24 9 10 8 9 11 1 3 7 6 3 6 9 11 11 11 13 14 14 14 16 16 16 15 13 12 11 10 9 7 5 5 8 12 10 6 3 1 1 2 3 3 3 3
4 12 19 24 18 15 6 10 9 4 9 4 4 4 2 1 7 10 11 11 11 12 14 14 15 15 14 14 15 14 12 10 9 9 9 7 5 6 9 7 5 2 0 1 2 3 4 3 1
12 16 19 11 15 9 6 9 7 6 11 13 9 4 2 4 8 11 13 13 13 14 15 15 15 15 14 11 13 14 13 11 10 10 11 8 6 5 3 4 3 3 2 1 1 2 1 4 1
11 19 14 7 8 4 9 12 9 12 18 14 11 6 1 2 7 9 11 10 13 13 14 15 15 15 15 14 13 12 11 9 8 9 9 7 6 6 6 5 5 5 5 3 2 2 2 4 5
9 13 14 9 10 9 12 12 16 19 22 5 6 6 9 8 6 8 12 10 10 11 13 15 16 17 16 13 14 13 13 12 10 10 10 9 8 7 5 4 3 3 2 2 1 5 5 3 3
12 12 10 11 11 13 14 22 25 23 21 20 20 17 19 17 15 11 10 11 10 12 13 15 17 17 17 18 14 14 14 14 13 12 12 10 9 8 6 5 4 3 3 4 4 4 2 2 3
2 7 12 11 16 16 20 26 22 23 24 26 27 28 27 25 22 17 13 13 13 14 14 14 18 18 18 17 18 15 16 15 14 13 14 12 8 8 7 7 7 7 6 4 2 3 2 3 4
7 12 14 16 15 15 11 25 24 29 28 30 26 26 25 27 27 24 19 16 13 14 12 13 15 17 19 19 18 18 17 16 15 14 14 14 11 10 9 8 6 6 6 5 3 2 2 3 5
5 6 7 1 2 7 10 24 9 10 16 20 25 28 28 28 28 28 25 20 16 13 13 11 12 16 20 19 20 18 18 17 16 14 14 14 12 12 10 9 7 6 4 5 4 3 2 4 5
8 9 11 10 1 5 13 14 6 4 9 15 18 18 19 21 25 26 27 23 20 17 15 13 12 15 18 19 18 18 18 18 16 15 13 15 14 14 12 9 8 6 6 6 4 3 3 4 6
7 10 9 12 2 10 19 28 25 24 27 26 23 21 20 21 21 19 21 22 22 20 17 15 12 13 15 15 17 16 17 16 14 14 12 16 15 15 14 10 10 6 7 6 4 4 5 6 8
1 7 10 11 12 21 24 30 27 26 29 30 29 27 29 29 23 21 20 18 16 17 16 17 15 14 15 18 20 20 19 14 13 12 14 15 16 16 13 11 10 7 7 6 4 5 6 6 9
16 17 18 16 13 12 23 43 31 34 33 32 31 31 32 31 30 29 25 24 20 18 19 16 16 16 18 16 18 17 16 10 11 12 13 14 16 16 14 11 10 9 8 8 7 5 3 4 8
18 18 17 19 18 20 24 34 20 6 12 19 25 29 30 32 31 30 30 28 24 21 19 19 18 18 19 18 15 14 14 14 10 13 14 13 15 13 13 12 11 10 8 8 7 6 4 4 4
17 10 15 15 10 9 3 20 22 21 23 21 24 22 24 25 27 29 31 29 28 24 19 18 18 19 19 22 20 23 18 20 11 17 13 12 12 13 12 12 12 10 9 9 7 5 5 3 2
7 6 8 9 13 17 16 10 20 8 19 19 18 19 19 18 20 23 27 29 26 23 20 18 18 20 20 23 20 21 18 17 18 16 17 14 12 12 11 12 11 11 9 9 7 5 4 3 2
3 8 10 9 7 13 19 21 30 18 13 9 8 7 11 13 15 21 22 22 24 21 19 20 21 21 21 22 21 22 24 24 23 20 18 13 10 12 11 12 11 10 10 8 6 5 3 2 2
14 5 3 5 9 13 2 16 33 3 8 12 15 15 18 18 18 17 18 21 22 22 21 22 23 22 22 22 23 22 24 24 27 24 20 18 16 12 12 12 10 9 9 7 5 4 2 1 1
20 15 8 7 7 11 4 15 14 5 3 6 8 17 16 17 20 20 19 19 22 24 24 24 25 23 23 23 22 22 24 21 20 19 18 15 13 13 13 11 11 10 8 6 4 2 1 0 2
8 15 17 21 22 17 15 27 35 34 30 26 24 9 10 16 20 19 20 17 21 22 25 26 25 23 23 23 23 23 23 22 22 20 16 14 14 14 13 11 10 8 7 5 3 1 1 2 2
15 1 4 8 6 14 15 26 24 12 17 8 9 9 13 17 21 15 17 16 18 22 23 22 23 24 24 24 24 23 23 22 21 19 17 16 15 15 13 11 9 7 5 4 1 1 1 3 4
13 13 9 6 9 10 18 22 7 11 12 14 7 9 14 15 20 11 11 13 16 20 23 23 23 24 24 23 24 27 24 23 21 19 18 16 16 14 12 10 8 6 4 2 0 1 2 5 6
18 15 25 14 12 15 22 42 17 19 14 8 9 12 14 10 14 8 6 12 18 21 24 26 24 24 23 24 26 26 25 22 22 20 18 16 15 13 11 9 6 5 2 0 2 3 4 6 8
Wind_Direction
307 311 295 249 247 235 239 227 248 208 210 266 280 258 300 312 262 262 126 139 142 152 155 165 158 142 142 141 144 143 141 138 136 138 127 128 126 114 120 128 105 79 49 45 45 50 64 89 87
313 299 241 259 247 234 228 214 211 201 316 304 272 238 245 232 302 94 138 152 153 153 157 162 149 146 144 148 148 147 145 142 141 139 137 135 130 131 122 110 91 73 62 46 40 51 66 72 64
261 299 251 232 237 236 243 201 182 312 320 244 236 252 279 89 128 121 75 147 157 159 161 148 148 145 148 151 149 147 144 141 138 141 147 138 134 124 123 112 94 77 69 67 62 52 45 45 43
213 188 200 236 235 238 238 185 174 310 159 26 329 240 219 48 100 101 138 154 158 164 162 140 154 151 153 154 153 151 147 146 146 148 152 142 144 142 126 118 101 84 73 68 64 61 61 57 46
201 226 228 237 243 240 238 249 232 267 301 301 317 227 264 134 124 137 151 153 165 165 164 156 158 157 159 159 160 157 155 156 157 163 170 153 127 168 149 137 120 104 94 85 79 68 56 28 350
190 234 223 232 240 233 247 252 261 262 265 287 257 259 250 110 161 143 153 156 160 169 167 159 166 164 165 167 165 162 161 161 164 170 178 189 175 265 169 150 136 120 109 91 69 34 24 345 342
225 215 231 241 247 244 244 242 244 256 263 258 260 242 109 179 119 144 150 152 162 171 169 169 177 173 170 172 171 168 167 165 165 175 180 166 53 293 162 155 144 132 120 93 23 351 353 346 350
226 233 233 231 243 245 232 224 249 247 258 140 237 230 215 80 141 153 157 160 163 170 175 176 180 185 186 181 177 174 169 167 165 167 164 126 97 86 123 141 135 130 105 33 1 357 355 348 357
220 223 230 229 244 237 206 225 228 260 252 234 213 274 17 83 164 171 172 176 174 176 181 182 183 191 195 186 177 177 172 170 165 168 159 170 169 151 164 85 112 136 310 355 11 31 14 338 219
210 225 238 246 244 243 229 244 233 242 221 227 212 185 41 160 190 197 197 194 192 187 187 188 192 193 196 194 179 192 180 188 188 184 175 194 177 165 168 138 154 188 228 244 360 31 334 254 327
205 233 228 225 226 231 252 247 242 241 242 233 225 224 39 74 204 227 229 224 204 197 190 195 191 195 200 196 195 192 189 191 188 185 181 180 180 182 188 181 191 200 193 208 210 188 65 44 19
222 240 253 259 233 253 245 266 254 243 246 250 265 281 285 265 247 233 232 231 221 204 204 196 195 190 197 199 202 196 192 190 187 186 182 174 170 170 172 178 167 183 185 160 86 67 76 58 29
232 246 250 254 254 258 265 253 255 262 256 255 263 265 267 270 261 255 245 245 229 221 212 205 203 197 195 198 196 202 200 195 188 180 183 181 177 171 169 168 167 137 87 80 96 89 76 352 360
251 261 267 269 263 266 261 260 255 250 258 259 259 258 257 259 258 255 241 245 235 230 221 212 209 206 198 199 195 194 197 194 188 182 181 182 176 169 173 138 126 110 103 94 97 68 28 7 351
257 278 271 261 256 264 262 266 247 253 252 254 252 252 250 251 253 249 248 246 242 240 235 222 218 211 208 201 198 197 197 191 189 182 179 178 176 168 150 141 137 133 130 117 101 81 32 354 338
243 257 276 110 310 240 219 261 281 271 248 249 256 255 252 246 247 250 249 251 252 250 230 220 212 216 213 205 201 199 192 189 187 183 180 177 161 152 140 132 124 129 127 113 83 46 27 354 337
219 254 238 287 278 268 214 271 267 278 256 264 255 258 259 256 251 252 255 253 252 246 238 234 226 221 214 208 205 200 190 187 182 184 178 163 158 149 136 133 125 130 113 96 100 74 32 11 347
238 230 239 249 194 284 270 265 267 266 272 270 265 261 254 254 253 252 252 251 250 248 243 238 222 213 203 201 199 196 189 183 173 175 169 151 148 141 122 129 128 129 118 109 113 92 59 23 349
272 260 260 265 275 297 276 274 272 271 267 265 261 258 259 258 254 255 255 250 241 231 227 223 208 199 191 190 193 186 179 169 156 150 142 143 138 132 127 136 135 128 114 112 100 87 51 27 360
252 263 271 284 280 277 288 284 281 268 257 254 256 255 253 254 254 248 244 245 238 228 220 218 209 190 189 189 188 187 157 144 120 125 125 133 129 126 126 144 137 129 123 101 82 68 74 45 23
242 253 262 269 292 287 281 283 262 263 245 246 246 247 249 247 245 244 241 234 234 230 219 210 203 190 183 183 165 145 130 124 115 129 127 129 126 130 135 142 134 125 117 104 89 73 54 49 44
259 254 253 263 278 273 31 290 283 268 259 255 247 239 236 238 239 243 241 236 225 224 219 206 195 186 181 168 171 176 169 157 154 144 131 127 121 129 134 133 125 118 115 108 95 79 63 34 20
241 218 238 260 273 293 257 247 271 261 251 256 258 265 268 268 260 248 243 235 232 219 206 198 188 183 179 180 177 178 162 144 132 134 130 123 127 131 129 125 121 117 109 105 106 96 73 54 5
123 227 247 261 261 265 250 211 276 275 270 256 249 277 285 275 273 260 250 244 230 221 197 184 183 183 180 175 175 172 160 149 143 146 135 131 127 130 131 122 117 112 112 111 105 98 93 71 52
217 181 245 235 209 247 236 209 246 247 276 270 271 291 297 288 285 261 251 232 221 207 194 181 180 177 177 171 170 162 159 158 155 150 145 145 146 143 134 128 126 117 113 110 106 100 133 94 329
196 206 217 260 239 279 214 241 254 295 291 249 254 289 300 302 287 261 253 230 217 201 190 179 177 172 172 165 161 158 153 151 144 140 139 139 141 141 135 127 122 119 118 116 109 132 164 263 259
184 215 240 266 274 281 252 268 279 271 268 261 259 258 300 309 324 259 247 227 214 197 185 177 173 168 166 160 152 148 145 140 136 130 125 132 133 132 129 129 125 124 125 110 130 160 237 259 287
224 237 188 209 265 262 252 265 260 276 285 217 262 278 320 326 323 274 236 220 204 187 175 169 166 162 156 152 147 144 138 129 127 127 132 138 131 130 132 129 130 133 122 126 169 234 268 299 314
196 226 219 284 230 261 283 265 322 296 293 270 241 306 317 330 328 307 237 204 185 169 159 156 154 152 150 147 141 135 127 126 126 135 135 133 131 133 131 133 135 133 135 140 240 330 307 313 303
225 230 219 227 232 228 254 267 283 290 261 219 275 309 315 335 334 344 224 181 164 158 153 149 147 147 145 139 133 125 125 129 134 136 131 133 130 129 129 130 132 132 126 32 337 326 311 301 301